Hourly Weather Wiktoria

Today, 4 July, Saturday

Time Temperature Precipitation Wind Pressure Humidity
00:00 +2°C° 0 mm 3 mps 754 mmHg 94%
01:00 +2°C° 0 mm 3 mps 755 mmHg 94%
02:00 +2°C° 0 mm 3 mps 755 mmHg 94%
03:00 +2°C° 0 mm 3 mps 755 mmHg 94%
04:00 +2°C° 0 mm 3 mps 756 mmHg 93%
05:00 +2°C° 0 mm 3 mps 756 mmHg 94%
06:00 +2°C° 0 mm 3 mps 756 mmHg 94%
07:00 +2°C° 0 mm 2 mps 756 mmHg 94%
08:00 +4°C° 0 mm 2 mps 756 mmHg 92%
09:00 +5°C° 0 mm 2 mps 756 mmHg 91%
10:00 +7°C° 0 mm 3 mps 756 mmHg 89%
11:00 +8°C° 0 mm 3 mps 756 mmHg 88%
12:00 +9°C° 0 mm 3 mps 756 mmHg 86%
13:00 +10°C° 0 mm 3 mps 756 mmHg 84%
14:00 +10°C° 0.1 mm 3 mps 755 mmHg 85%
15:00 +10°C° 0.1 mm 3 mps 755 mmHg 87%
16:00 +10°C° 0.1 mm 3 mps 755 mmHg 88%
17:00 +10°C° 0 mm 3 mps 755 mmHg 89%
18:00 +9°C° 0 mm 3 mps 756 mmHg 90%
19:00 +9°C° 0 mm 3 mps 756 mmHg 91%
20:00 +8°C° 0 mm 3 mps 756 mmHg 92%
21:00 +8°C° 0 mm 3 mps 756 mmHg 92%
22:00 +8°C° 0 mm 3 mps 756 mmHg 93%
23:00 +8°C° 0 mm 3 mps 756 mmHg 93%

Tomorrow, 5 July, Sunday

Time Temperature Precipitation Wind Pressure Humidity
00:00 +8°C° 0 mm 3 mps 756 mmHg 94%
01:00 +8°C° 0 mm 3 mps 756 mmHg 94%
02:00 +8°C° 0 mm 3 mps 756 mmHg 94%
03:00 +7°C° 0 mm 3 mps 756 mmHg 94%
04:00 +6°C° 0 mm 4 mps 756 mmHg 94%
05:00 +5°C° 0 mm 4 mps 756 mmHg 94%
06:00 +5°C° 0 mm 3 mps 757 mmHg 94%
07:00 +4°C° 0 mm 3 mps 757 mmHg 95%
08:00 +6°C° 0 mm 4 mps 757 mmHg 91%
09:00 +7°C° 0 mm 4 mps 758 mmHg 87%
10:00 +9°C° 0 mm 5 mps 758 mmHg 84%
11:00 +10°C° 0 mm 5 mps 757 mmHg 78%
12:00 +12°C° 0 mm 5 mps 757 mmHg 73%
13:00 +13°C° 0 mm 6 mps 757 mmHg 68%
14:00 +12°C° 0 mm 5 mps 757 mmHg 68%
15:00 +12°C° 0 mm 5 mps 757 mmHg 69%
16:00 +12°C° 0 mm 5 mps 757 mmHg 70%
17:00 +10°C° 0 mm 4 mps 757 mmHg 74%
18:00 +8°C° 0 mm 4 mps 758 mmHg 79%
19:00 +7°C° 0 mm 4 mps 758 mmHg 83%
20:00 +7°C° 0 mm 3 mps 758 mmHg 87%
21:00 +5°C° 0 mm 3 mps 758 mmHg 90%
22:00 +5°C° 0 mm 3 mps 759 mmHg 93%
23:00 +5°C° 0 mm 3 mps 759 mmHg 93%

Day after tomorrow, 6 July, Monday

Time Temperature Precipitation Wind Pressure Humidity
00:00 +5°C° 0 mm 3 mps 759 mmHg 93%
01:00 +5°C° 0 mm 3 mps 759 mmHg 93%
02:00 +5°C° 0 mm 3 mps 759 mmHg 93%
03:00 +4°C° 0 mm 3 mps 759 mmHg 93%
04:00 +4°C° 0 mm 4 mps 759 mmHg 93%
05:00 +4°C° 0 mm 3 mps 759 mmHg 93%
06:00 +4°C° 0 mm 3 mps 760 mmHg 94%
07:00 +3°C° 0 mm 3 mps 760 mmHg 94%
08:00 +5°C° 0 mm 3 mps 760 mmHg 89%
09:00 +8°C° 0 mm 3 mps 761 mmHg 84%
10:00 +9°C° 0 mm 3 mps 761 mmHg 78%
11:00 +10°C° 0 mm 4 mps 761 mmHg 74%
12:00 +12°C° 0 mm 4 mps 760 mmHg 69%
13:00 +13°C° 0 mm 4 mps 760 mmHg 64%
14:00 +13°C° 0 mm 4 mps 760 mmHg 66%
15:00 +12°C° 0 mm 4 mps 759 mmHg 69%
16:00 +12°C° 0 mm 3 mps 759 mmHg 71%
17:00 +11°C° 0 mm 4 mps 760 mmHg 75%
18:00 +8°C° 0 mm 4 mps 760 mmHg 79%
19:00 +6°C° 0 mm 4 mps 760 mmHg 83%
20:00 +6°C° 0 mm 4 mps 761 mmHg 86%
21:00 +5°C° 0 mm 3 mps 761 mmHg 89%
22:00 +5°C° 0 mm 3 mps 761 mmHg 92%
23:00 +4°C° 0 mm 3 mps 761 mmHg 92%

7 July, Tuesday

Time Temperature Precipitation Wind Pressure Humidity
00:00 +4°C° 0 mm 3 mps 761 mmHg 92%
01:00 +4°C° 0 mm 3 mps 760 mmHg 93%
02:00 +3°C° 0 mm 3 mps 760 mmHg 93%
03:00 +3°C° 0 mm 3 mps 760 mmHg 92%
04:00 +4°C° 0 mm 2 mps 760 mmHg 92%
05:00 +4°C° 0 mm 2 mps 760 mmHg 92%
06:00 +3°C° 0 mm 2 mps 760 mmHg 92%
07:00 +3°C° 0 mm 2 mps 760 mmHg 92%
08:00 +5°C° 0 mm 2 mps 761 mmHg 86%
09:00 +8°C° 0 mm 1 mps 761 mmHg 80%
10:00 +9°C° 0 mm 1 mps 761 mmHg 75%
11:00 +11°C° 0 mm 1 mps 760 mmHg 70%
12:00 +12°C° 0 mm 1 mps 760 mmHg 66%
13:00 +13°C° 0 mm 1 mps 760 mmHg 62%
14:00 +13°C° 0 mm 1 mps 759 mmHg 65%
15:00 +13°C° 0 mm 1 mps 759 mmHg 67%
16:00 +13°C° 0 mm 1 mps 759 mmHg 70%
17:00 +10°C° 0 mm 0 mps 759 mmHg 75%
18:00 +8°C° 0 mm 0 mps 759 mmHg 79%
19:00 +7°C° 0 mm 0 mps 759 mmHg 84%
20:00 +6°C° 0 mm 0 mps 759 mmHg 85%
21:00 +7°C° 0 mm 1 mps 759 mmHg 87%
22:00 +7°C° 0 mm 1 mps 759 mmHg 89%
23:00 +7°C° 0 mm 1 mps 759 mmHg 89%

8 July, Wednesday

Time Temperature Precipitation Wind Pressure Humidity
00:00 +6°C° 0 mm 1 mps 759 mmHg 90%
01:00 +6°C° 0 mm 1 mps 759 mmHg 91%
02:00 +6°C° 0 mm 1 mps 759 mmHg 91%
03:00 +6°C° 0 mm 1 mps 759 mmHg 91%
04:00 +5°C° 0 mm 1 mps 759 mmHg 91%
05:00 +5°C° 0 mm 1 mps 759 mmHg 91%
06:00 +5°C° 0 mm 1 mps 759 mmHg 91%
07:00 +5°C° 0 mm 1 mps 759 mmHg 91%
08:00 +6°C° 0 mm 1 mps 759 mmHg 86%
09:00 +7°C° 0 mm 2 mps 759 mmHg 82%
10:00 +9°C° 0 mm 2 mps 759 mmHg 77%
11:00 +10°C° 0 mm 2 mps 759 mmHg 74%
12:00 +11°C° 0 mm 3 mps 758 mmHg 71%
13:00 +12°C° 0 mm 3 mps 758 mmHg 68%
14:00 +12°C° 0 mm 3 mps 757 mmHg 70%
15:00 +12°C° 0 mm 3 mps 757 mmHg 72%
16:00 +13°C° 0 mm 2 mps 757 mmHg 75%
17:00 +10°C° 0 mm 2 mps 757 mmHg 80%
18:00 +9°C° 0 mm 2 mps 757 mmHg 85%
19:00 +7°C° 0 mm 2 mps 757 mmHg 90%
20:00 +7°C° 0 mm 2 mps 758 mmHg 90%
21:00 +7°C° 0 mm 2 mps 758 mmHg 91%
22:00 +7°C° 0 mm 2 mps 758 mmHg 91%
23:00 +7°C° 0 mm 2 mps 757 mmHg 92%

9 July, Thursday

Time Temperature Precipitation Wind Pressure Humidity
00:00 +6°C° 0 mm 2 mps 757 mmHg 93%
01:00 +6°C° 0 mm 2 mps 757 mmHg 94%
02:00 +5°C° 0 mm 3 mps 757 mmHg 92%
03:00 +7°C° 0 mm 3 mps 757 mmHg 91%
04:00 +7°C° 0 mm 3 mps 757 mmHg 89%
05:00 +7°C° 0 mm 3 mps 757 mmHg 88%
06:00 +7°C° 0 mm 3 mps 757 mmHg 87%
07:00 +7°C° 0 mm 3 mps 757 mmHg 86%
08:00 +8°C° 0 mm 3 mps 757 mmHg 85%
09:00 +8°C° 0 mm 3 mps 757 mmHg 83%
10:00 +8°C° 0 mm 4 mps 757 mmHg 81%
11:00 +10°C° 0 mm 4 mps 756 mmHg 80%
12:00 +10°C° 0 mm 4 mps 756 mmHg 80%
13:00 +11°C° 0 mm 4 mps 755 mmHg 79%
14:00 +11°C° 0 mm 3 mps 755 mmHg 79%
15:00 +11°C° 0 mm 3 mps 755 mmHg 79%
16:00 +11°C° 0 mm 3 mps 755 mmHg 79%
17:00 +11°C° 0 mm 3 mps 755 mmHg 80%
18:00 +10°C° 0 mm 3 mps 755 mmHg 80%
19:00 +10°C° 0 mm 3 mps 755 mmHg 81%
20:00 +9°C° 0 mm 3 mps 755 mmHg 81%
21:00 +9°C° 0 mm 2 mps 755 mmHg 80%
22:00 +9°C° 0 mm 2 mps 755 mmHg 80%
23:00 +8°C° 0 mm 2 mps 755 mmHg 81%
Show more